QPF
0.00 0.00 0.00 0.00 0.00 0.00 0.00 0.00 0.00 0.00 0.00 0.00 0.00 0.00 0.00 0.00 0.00 0.00 0.00 0.00 0.00 0.00 0.00 0.00 0.00 0.00 0.00 0.00 0.00 0.00 0.00 0.00 0.00 0.00 0.00 0.00 0.00 0.00 0.00 0.00 0.00 0.00 0.00
0.00 0.00 0.00 0.00 0.00 0.00 0.00 0.00 0.00 0.00 0.00 0.00 0.00 0.00 0.00 0.00 0.00 0.00 0.00 0.00 0.00 0.00 0.00 0.00 0.00 0.00 0.00 0.00 0.00 0.00 0.00 0.00 0.00 0.00 0.00 0.00 0.00 0.00 0.00 0.00 0.00 0.00 0.00
0.00 0.00 0.00 0.00 0.00 0.00 0.00 0.00 0.00 0.00 0.00 0.00 0.00 0.00 0.00 0.00 0.00 0.00 0.00 0.00 0.00 0.00 0.00 0.00 0.00 0.00 0.00 0.00 0.00 0.00 0.00 0.00 0.00 0.00 0.00 0.00 0.00 0.00 0.00 0.00 0.00 0.00 0.00
0.00 0.00 0.00 0.00 0.00 0.00 0.00 0.00 0.00 0.00 0.00 0.00 0.00 0.00 0.00 0.00 0.00 0.00 0.00 0.00 0.00 0.00 0.00 0.00 0.00 0.00 0.00 0.00 0.00 0.00 0.00 0.00 0.00 0.00 0.00 0.00 0.00 0.00 0.00 0.00 0.00 0.00 0.00
0.00 0.00 0.00 0.00 0.00 0.00 0.00 0.00 0.00 0.00 0.00 0.00 0.00 0.00 0.00 0.00 0.00 0.00 0.00 0.00 0.00 0.00 0.00 0.00 0.00 0.00 0.00 0.00 0.00 0.00 0.00 0.00 0.00 0.00 0.00 0.00 0.01 0.00 0.01 0.01 0.00 0.00 0.00
0.00 0.00 0.00 0.00 0.00 0.00 0.00 0.00 0.00 0.00 0.00 0.00 0.00 0.00 0.00 0.00 0.00 0.00 0.00 0.00 0.00 0.00 0.00 0.00 0.00 0.00 0.00 0.00 0.00 0.00 0.00 0.00 0.00 0.00 0.00 0.00 0.01 0.01 0.01 0.02 0.01 0.01 0.00
0.00 0.00 0.00 0.00 0.00 0.00 0.00 0.00 0.00 0.00 0.00 0.00 0.00 0.00 0.00 0.00 0.00 0.00 0.00 0.00 0.00 0.00 0.00 0.00 0.00 0.00 0.00 0.00 0.00 0.00 0.00 0.00 0.00 0.00 0.00 0.01 0.01 0.01 0.02 0.03 0.02 0.01 0.00
0.00 0.00 0.00 0.00 0.00 0.00 0.00 0.00 0.00 0.00 0.00 0.00 0.00 0.00 0.00 0.00 0.00 0.00 0.00 0.00 0.00 0.00 0.00 0.00 0.00 0.00 0.00 0.00 0.00 0.00 0.00 0.00 0.00 0.00 0.00 0.00 0.00 0.01 0.03 0.04 0.03 0.02 0.00
0.00 0.00 0.00 0.00 0.00 0.00 0.00 0.00 0.00 0.00 0.00 0.00 0.00 0.00 0.00 0.00 0.00 0.00 0.00 0.00 0.00 0.00 0.00 0.00 0.00 0.00 0.00 0.00 0.00 0.00 0.00 0.00 0.00 0.00 0.00 0.00 0.00 0.02 0.07 0.07 0.04 0.02 0.01
0.00 0.00 0.00 0.00 0.00 0.00 0.00 0.00 0.00 0.00 0.00 0.00 0.00 0.00 0.00 0.00 0.00 0.00 0.00 0.00 0.00 0.00 0.00 0.00 0.00 0.00 0.00 0.00 0.00 0.00 0.00 0.00 0.00 0.00 0.00 0.00 0.01 0.05 0.10 0.08 0.06 0.04 0.03
0.00 0.00 0.00 0.00 0.00 0.00 0.00 0.00 0.00 0.00 0.00 0.00 0.00 0.00 0.00 0.00 0.00 0.00 0.00 0.00 0.00 0.00 0.00 0.00 0.00 0.00 0.00 0.00 0.00 0.01 0.01 0.00 0.00 0.00 0.00 0.00 0.02 0.08 0.10 0.08 0.06 0.06 0.04
0.00 0.00 0.00 0.00 0.00 0.00 0.00 0.00 0.00 0.00 0.00 0.00 0.00 0.00 0.00 0.00 0.00 0.00 0.00 0.00 0.00 0.00 0.00 0.00 0.00 0.00 0.00 0.00 0.00 0.02 0.00 0.00 0.01 0.02 0.03 0.02 0.04 0.10 0.12 0.06 0.05 0.04 0.03
0.00 0.00 0.00 0.00 0.00 0.00 0.00 0.00 0.00 0.00 0.00 0.00 0.00 0.00 0.00 0.00 0.00 0.00 0.00 0.00 0.00 0.00 0.00 0.00 0.00 0.00 0.00 0.00 0.00 0.01 0.00 0.00 0.01 0.03 0.04 0.03 0.06 0.09 0.08 0.04 0.03 0.03 0.03
0.00 0.00 0.00 0.00 0.00 0.00 0.00 0.00 0.00 0.00 0.00 0.00 0.00 0.00 0.00 0.00 0.00 0.00 0.00 0.00 0.00 0.00 0.00 0.00 0.00 0.00 0.00 0.00 0.01 0.01 0.01 0.01 0.01 0.02 0.02 0.01 0.02 0.03 0.04 0.03 0.02 0.02 0.02
0.00 0.00 0.00 0.00 0.00 0.00 0.00 0.00 0.00 0.00 0.00 0.00 0.00 0.00 0.00 0.00 0.00 0.00 0.00 0.00 0.00 0.00 0.01 0.00 0.01 0.01 0.01 0.01 0.01 0.01 0.01 0.01 0.01 0.02 0.01 0.01 0.00 0.01 0.02 0.03 0.03 0.02 0.02
0.01 0.00 0.00 0.00 0.00 0.00 0.01 0.01 0.00 0.00 0.00 0.00 0.00 0.00 0.00 0.01 0.01 0.01 0.00 0.01 0.00 0.00 0.01 0.01 0.01 0.02 0.02 0.01 0.01 0.01 0.02 0.03 0.02 0.02 0.02 0.01 0.01 0.01 0.01 0.03 0.04 0.04 0.03
0.01 0.02 0.02 0.01 0.01 0.01 0.01 0.01 0.01 0.01 0.01 0.03 0.02 0.01 0.01 0.01 0.01 0.01 0.01 0.01 0.01 0.01 0.01 0.01 0.01 0.02 0.02 0.03 0.03 0.04 0.05 0.05 0.05 0.04 0.03 0.03 0.02 0.01 0.01 0.02 0.04 0.05 0.06
0.03 0.04 0.05 0.04 0.03 0.03 0.03 0.04 0.04 0.04 0.04 0.04 0.04 0.05 0.05 0.04 0.03 0.04 0.04 0.03 0.03 0.04 0.04 0.04 0.05 0.06 0.07 0.09 0.09 0.11 0.11 0.09 0.08 0.05 0.06 0.06 0.05 0.03 0.02 0.02 0.03 0.04 0.06
0.05 0.06 0.10 0.12 0.13 0.15 0.14 0.15 0.13 0.10 0.07 0.06 0.07 0.08 0.11 0.12 0.12 0.14 0.13 0.11 0.12 0.11 0.10 0.10 0.11 0.11 0.13 0.15 0.17 0.15 0.13 0.09 0.07 0.07 0.10 0.08 0.06 0.04 0.05 0.05 0.03 0.04 0.10
0.05 0.08 0.13 0.20 0.24 0.27 0.26 0.23 0.20 0.16 0.12 0.11 0.10 0.12 0.14 0.15 0.19 0.25 0.26 0.24 0.23 0.21 0.18 0.18 0.20 0.21 0.21 0.21 0.21 0.15 0.10 0.09 0.08 0.07 0.06 0.05 0.04 0.04 0.05 0.07 0.08 0.12 0.19
0.03 0.05 0.09 0.15 0.17 0.19 0.19 0.16 0.15 0.14 0.16 0.14 0.13 0.14 0.14 0.15 0.21 0.32 0.35 0.35 0.37 0.36 0.31 0.33 0.33 0.29 0.24 0.24 0.22 0.12 0.07 0.06 0.04 0.02 0.02 0.02 0.02 0.02 0.05 0.08 0.09 0.13 0.14
0.03 0.03 0.04 0.06 0.06 0.06 0.08 0.11 0.10 0.10 0.08 0.06 0.08 0.11 0.12 0.17 0.23 0.36 0.43 0.42 0.44 0.42 0.35 0.32 0.33 0.27 0.19 0.23 0.24 0.22 0.14 0.07 0.03 0.02 0.03 0.05 0.06 0.09 0.10 0.10 0.09 0.11 0.11
0.01 0.01 0.01 0.01 0.02 0.02 0.03 0.05 0.07 0.07 0.04 0.03 0.05 0.05 0.06 0.12 0.16 0.26 0.31 0.37 0.40 0.40 0.31 0.28 0.30 0.27 0.20 0.21 0.27 0.29 0.22 0.14 0.09 0.06 0.09 0.15 0.20 0.20 0.17 0.16 0.15 0.13 0.17
0.00 0.00 0.00 0.00 0.00 0.01 0.01 0.02 0.03 0.04 0.04 0.04 0.06 0.02 0.02 0.05 0.08 0.13 0.16 0.21 0.24 0.26 0.23 0.22 0.24 0.23 0.20 0.15 0.17 0.19 0.20 0.19 0.18 0.13 0.09 0.14 0.23 0.25 0.23 0.22 0.20 0.17 0.20
0.00 0.00 0.00 0.00 0.00 0.00 0.00 0.01 0.01 0.01 0.01 0.01 0.02 0.01 0.01 0.02 0.03 0.06 0.09 0.11 0.14 0.15 0.14 0.14 0.14 0.11 0.10 0.10 0.13 0.16 0.18 0.22 0.25 0.24 0.17 0.11 0.08 0.11 0.13 0.14 0.16 0.20 0.24
0.00 0.00 0.00 0.00 0.00 0.00 0.00 0.00 0.00 0.01 0.01 0.00 0.01 0.01 0.01 0.01 0.02 0.04 0.05 0.05 0.07 0.08 0.08 0.07 0.06 0.06 0.06 0.08 0.11 0.15 0.19 0.25 0.31 0.32 0.26 0.18 0.10 0.05 0.06 0.07 0.09 0.15 0.20
MSLP
1012.48 1012.15 1012.03 1012.17 1012.53 1013.03 1013.55 1014.00 1014.30 1014.42 1014.40 1014.31 1014.23 1014.22 1014.33 1014.53 1014.80 1015.08 1015.32 1015.46 1015.52 1015.52 1015.48 1015.46 1015.49 1015.57 1015.70 1015.85 1015.99 1016.09 1016.13 1016.14 1016.11 1016.08 1016.06 1016.06 1016.10 1016.15 1016.21 1016.27 1016.32 1016.37 1016.42
1012.01 1011.82 1011.83 1012.08 1012.51 1013.05 1013.59 1014.03 1014.31 1014.43 1014.43 1014.37 1014.33 1014.38 1014.52 1014.76 1015.03 1015.29 1015.49 1015.60 1015.62 1015.59 1015.54 1015.51 1015.54 1015.62 1015.74 1015.88 1016.00 1016.08 1016.13 1016.13 1016.12 1016.11 1016.11 1016.15 1016.20 1016.26 1016.32 1016.37 1016.42 1016.46 1016.50
1011.55 1011.48 1011.60 1011.93 1012.42 1012.99 1013.53 1013.96 1014.24 1014.38 1014.40 1014.39 1014.41 1014.51 1014.69 1014.93 1015.19 1015.42 1015.57 1015.63 1015.61 1015.55 1015.49 1015.46 1015.49 1015.57 1015.68 1015.81 1015.91 1015.98 1016.02 1016.04 1016.05 1016.07 1016.11 1016.18 1016.26 1016.34 1016.40 1016.45 1016.49 1016.53 1016.58
1011.16 1011.18 1011.38 1011.77 1012.29 1012.87 1013.40 1013.83 1014.11 1014.26 1014.33 1014.37 1014.44 1014.58 1014.78 1015.02 1015.25 1015.43 1015.53 1015.54 1015.49 1015.42 1015.36 1015.34 1015.38 1015.47 1015.58 1015.69 1015.77 1015.83 1015.86 1015.88 1015.91 1015.97 1016.06 1016.16 1016.27 1016.36 1016.44 1016.49 1016.52 1016.57 1016.63
1010.89 1010.98 1011.23 1011.65 1012.19 1012.75 1013.26 1013.66 1013.94 1014.11 1014.21 1014.30 1014.42 1014.59 1014.80 1015.03 1015.22 1015.35 1015.39 1015.36 1015.29 1015.22 1015.17 1015.18 1015.25 1015.35 1015.46 1015.56 1015.62 1015.66 1015.68 1015.70 1015.75 1015.83 1015.95 1016.08 1016.21 1016.32 1016.39 1016.44 1016.48 1016.53 1016.61
1010.78 1010.91 1011.20 1011.64 1012.16 1012.68 1013.15 1013.52 1013.77 1013.94 1014.07 1014.19 1014.35 1014.54 1014.76 1014.96 1015.11 1015.19 1015.18 1015.12 1015.05 1014.99 1014.97 1015.02 1015.12 1015.25 1015.37 1015.45 1015.50 1015.51 1015.50 1015.52 1015.56 1015.65 1015.78 1015.92 1016.06 1016.17 1016.24 1016.28 1016.31 1016.37 1016.47
1010.82 1010.99 1011.31 1011.74 1012.23 1012.71 1013.11 1013.42 1013.64 1013.79 1013.92 1014.07 1014.25 1014.46 1014.67 1014.85 1014.96 1014.99 1014.95 1014.87 1014.79 1014.75 1014.78 1014.87 1015.01 1015.16 1015.29 1015.37 1015.39 1015.37 1015.34 1015.32 1015.35 1015.43 1015.55 1015.68 1015.81 1015.90 1015.95 1015.97 1016.00 1016.06 1016.18
1010.96 1011.18 1011.53 1011.95 1012.40 1012.81 1013.15 1013.39 1013.56 1013.68 1013.80 1013.95 1014.14 1014.36 1014.56 1014.72 1014.80 1014.79 1014.73 1014.63 1014.56 1014.54 1014.60 1014.74 1014.91 1015.09 1015.22 1015.29 1015.29 1015.24 1015.17 1015.12 1015.11 1015.16 1015.25 1015.36 1015.45 1015.51 1015.54 1015.54 1015.55 1015.60 1015.73
1011.12 1011.41 1011.79 1012.21 1012.62 1012.97 1013.23 1013.40 1013.50 1013.59 1013.69 1013.84 1014.04 1014.26 1014.46 1014.60 1014.65 1014.62 1014.53 1014.42 1014.35 1014.35 1014.43 1014.59 1014.79 1014.98 1015.12 1015.18 1015.16 1015.08 1014.97 1014.88 1014.83 1014.84 1014.89 1014.95 1015.01 1015.03 1015.03 1015.00 1014.99 1015.04 1015.17
1011.22 1011.58 1012.00 1012.43 1012.82 1013.11 1013.30 1013.40 1013.45 1013.49 1013.57 1013.72 1013.92 1014.14 1014.34 1014.48 1014.52 1014.47 1014.36 1014.24 1014.16 1014.16 1014.25 1014.41 1014.62 1014.81 1014.95 1015.00 1014.96 1014.86 1014.72 1014.60 1014.51 1014.47 1014.48 1014.50 1014.51 1014.50 1014.46 1014.42 1014.39 1014.42 1014.54
1011.18 1011.61 1012.08 1012.53 1012.90 1013.16 1013.29 1013.34 1013.33 1013.35 1013.41 1013.56 1013.76 1014.00 1014.20 1014.34 1014.37 1014.31 1014.19 1014.06 1013.96 1013.94 1014.02 1014.18 1014.37 1014.56 1014.68 1014.73 1014.68 1014.57 1014.42 1014.27 1014.15 1014.08 1014.04 1014.02 1014.00 1013.96 1013.90 1013.83 1013.80 1013.82 1013.93
1010.97 1011.47 1011.99 1012.45 1012.82 1013.05 1013.15 1013.16 1013.13 1013.12 1013.18 1013.32 1013.54 1013.78 1013.99 1014.13 1014.17 1014.11 1013.98 1013.84 1013.73 1013.69 1013.74 1013.87 1014.04 1014.21 1014.33 1014.37 1014.33 1014.21 1014.06 1013.90 1013.76 1013.66 1013.59 1013.54 1013.49 1013.43 1013.36 1013.29 1013.25 1013.28 1013.38
1010.59 1011.14 1011.69 1012.18 1012.54 1012.76 1012.85 1012.84 1012.80 1012.79 1012.85 1013.00 1013.22 1013.46 1013.68 1013.83 1013.88 1013.83 1013.70 1013.55 1013.43 1013.37 1013.40 1013.50 1013.64 1013.79 1013.90 1013.94 1013.91 1013.81 1013.66 1013.51 1013.36 1013.24 1013.15 1013.07 1013.00 1012.93 1012.85 1012.79 1012.77 1012.80 1012.90
1010.10 1010.67 1011.24 1011.73 1012.10 1012.32 1012.41 1012.41 1012.37 1012.37 1012.43 1012.58 1012.79 1013.04 1013.26 1013.41 1013.47 1013.43 1013.32 1013.18 1013.06 1012.99 1012.99 1013.07 1013.19 1013.32 1013.42 1013.47 1013.45 1013.37 1013.24 1013.09 1012.94 1012.81 1012.69 1012.60 1012.51 1012.43 1012.36 1012.31 1012.31 1012.36 1012.47
1009.61 1010.16 1010.71 1011.19 1011.55 1011.78 1011.89 1011.91 1011.90 1011.90 1011.96 1012.10 1012.30 1012.52 1012.72 1012.87 1012.93 1012.91 1012.82 1012.70 1012.59 1012.53 1012.53 1012.59 1012.69 1012.81 1012.91 1012.97 1012.97 1012.91 1012.80 1012.67 1012.52 1012.37 1012.22 1012.10 1011.99 1011.90 1011.83 1011.80 1011.82 1011.90 1012.04
1009.21 1009.71 1010.21 1010.65 1011.00 1011.24 1011.37 1011.42 1011.43 1011.45 1011.50 1011.61 1011.76 1011.93 1012.09 1012.21 1012.27 1012.26 1012.21 1012.12 1012.05 1012.01 1012.02 1012.08 1012.18 1012.29 1012.39 1012.46 1012.48 1012.44 1012.35 1012.23 1012.07 1011.90 1011.72 1011.56 1011.42 1011.31 1011.24 1011.22 1011.26 1011.36 1011.53
1008.98 1009.39 1009.82 1010.21 1010.54 1010.78 1010.94 1011.02 1011.06 1011.07 1011.10 1011.16 1011.24 1011.34 1011.43 1011.50 1011.53 1011.53 1011.50 1011.46 1011.43 1011.43 1011.46 1011.53 1011.64 1011.75 1011.86 1011.94 1011.98 1011.96 1011.89 1011.76 1011.60 1011.40 1011.19 1010.98 1010.80 1010.65 1010.56 1010.54 1010.59 1010.72 1010.90
1008.96 1009.27 1009.59 1009.92 1010.21 1010.46 1010.63 1010.75 1010.80 1010.82 1010.81 1010.79 1010.78 1010.78 1010.77 1010.77 1010.77 1010.76 1010.75 1010.75 1010.77 1010.80 1010.87 1010.96 1011.08 1011.20 1011.31 1011.40 1011.46 1011.46 1011.41 1011.29 1011.11 1010.89 1010.64 1010.38 1010.14 1009.94 1009.82 1009.77 1009.82 1009.96 1010.16
1009.14 1009.32 1009.54 1009.79 1010.04 1010.28 1010.47 1010.61 1010.68 1010.68 1010.62 1010.53 1010.41 1010.29 1010.18 1010.09 1010.03 1010.00 1010.00 1010.03 1010.09 1010.16 1010.26 1010.37 1010.50 1010.62 1010.75 1010.85 1010.92 1010.95 1010.91 1010.81 1010.63 1010.39 1010.10 1009.79 1009.49 1009.24 1009.06 1008.98 1009.00 1009.13 1009.34
1009.45 1009.51 1009.62 1009.79 1010.00 1010.22 1010.42 1010.57 1010.65 1010.63 1010.53 1010.35 1010.13 1009.89 1009.67 1009.49 1009.36 1009.29 1009.29 1009.34 1009.42 1009.53 1009.65 1009.77 1009.90 1010.04 1010.17 1010.28 1010.38 1010.43 1010.42 1010.34 1010.18 1009.93 1009.62 1009.27 1008.92 1008.61 1008.37 1008.24 1008.22 1008.32 1008.51
1009.81 1009.76 1009.77 1009.86 1010.02 1010.22 1010.42 1010.59 1010.67 1010.64 1010.49 1010.25 1009.93 1009.59 1009.26 1008.99 1008.79 1008.68 1008.66 1008.71 1008.81 1008.93 1009.06 1009.19 1009.32 1009.45 1009.59 1009.72 1009.84 1009.92 1009.95 1009.91 1009.77 1009.54 1009.23 1008.86 1008.47 1008.11 1007.82 1007.62 1007.55 1007.60 1007.76
1010.12 1009.98 1009.91 1009.93 1010.04 1010.22 1010.42 1010.59 1010.67 1010.64 1010.47 1010.17 1009.79 1009.37 1008.96 1008.60 1008.34 1008.19 1008.14 1008.17 1008.26 1008.38 1008.51 1008.64 1008.76 1008.89 1009.03 1009.18 1009.32 1009.45 1009.52 1009.53 1009.44 1009.25 1008.95 1008.59 1008.19 1007.79 1007.45 1007.20 1007.06 1007.05 1007.16
1010.32 1010.12 1009.99 1009.95 1010.02 1010.17 1010.36 1010.53 1010.62 1010.60 1010.42 1010.10 1009.68 1009.21 1008.74 1008.33 1008.01 1007.81 1007.72 1007.73 1007.80 1007.90 1008.01 1008.13 1008.25 1008.38 1008.52 1008.68 1008.85 1009.02 1009.15 1009.21 1009.18 1009.04 1008.79 1008.45 1008.06 1007.65 1007.28 1006.98 1006.79 1006.71 1006.75
1010.37 1010.15 1009.98 1009.90 1009.93 1010.06 1010.23 1010.41 1010.51 1010.50 1010.33 1010.02 1009.60 1009.10 1008.60 1008.14 1007.78 1007.53 1007.40 1007.36 1007.40 1007.47 1007.57 1007.68 1007.79 1007.91 1008.07 1008.24 1008.44 1008.64 1008.82 1008.94 1008.97 1008.89 1008.70 1008.41 1008.05 1007.66 1007.28 1006.96 1006.72 1006.58 1006.54
1010.28 1010.06 1009.88 1009.78 1009.79 1009.89 1010.06 1010.23 1010.35 1010.36 1010.23 1009.94 1009.53 1009.03 1008.51 1008.02 1007.61 1007.31 1007.13 1007.04 1007.04 1007.08 1007.16 1007.26 1007.37 1007.50 1007.67 1007.86 1008.08 1008.31 1008.52 1008.69 1008.77 1008.76 1008.63 1008.41 1008.10 1007.75 1007.40 1007.07 1006.80 1006.61 1006.51
1010.08 1009.90 1009.72 1009.62 1009.61 1009.70 1009.86 1010.04 1010.18 1010.22 1010.12 1009.87 1009.48 1008.99 1008.46 1007.94 1007.49 1007.13 1006.88 1006.74 1006.69 1006.70 1006.76 1006.86 1006.98 1007.13 1007.31 1007.53 1007.77 1008.01 1008.25 1008.44 1008.57 1008.61 1008.55 1008.39 1008.16 1007.87 1007.55 1007.25 1006.98 1006.76 1006.61
Thickness
5825 5826 5823 5820 5816 5813 5810 5808 5806 5804 5802 5800 5798 5796 5794 5791 5789 5787 5784 5782 5779 5777 5774 5772 5769 5767 5765 5763 5762 5760 5758 5757 5756 5755 5753 5752 5751 5750 5749 5748 5747 5746 5746
5835 5830 5826 5823 5819 5816 5812 5809 5806 5804 5802 5800 5798 5796 5794 5791 5789 5786 5784 5782 5780 5778 5775 5773 5770 5768 5766 5763 5761 5760 5758 5756 5755 5754 5752 5751 5750 5749 5749 5748 5747 5746 5745
5837 5832 5828 5825 5822 5818 5815 5811 5807 5804 5801 5799 5796 5795 5793 5791 5789 5786 5784 5782 5780 5778 5776 5774 5772 5769 5766 5764 5762 5760 5758 5756 5755 5753 5752 5750 5749 5748 5748 5748 5747 5746 5745
5839 5834 5830 5827 5823 5820 5816 5812 5808 5805 5801 5798 5796 5794 5792 5791 5789 5787 5785 5783 5781 5779 5776 5774 5772 5770 5767 5765 5762 5760 5758 5756 5755 5753 5752 5750 5749 5748 5748 5747 5747 5746 5745
5839 5835 5831 5828 5825 5821 5817 5813 5809 5805 5802 5799 5796 5794 5792 5791 5789 5787 5785 5783 5781 5779 5777 5775 5773 5770 5768 5765 5763 5761 5759 5757 5755 5754 5752 5751 5750 5749 5748 5747 5747 5747 5745
5837 5834 5831 5828 5825 5821 5818 5814 5810 5806 5803 5800 5797 5795 5793 5791 5789 5788 5786 5784 5782 5780 5778 5776 5773 5771 5769 5767 5765 5762 5760 5759 5757 5756 5754 5752 5752 5751 5749 5748 5748 5748 5746
5836 5833 5830 5827 5824 5821 5818 5814 5810 5807 5803 5800 5798 5795 5793 5791 5789 5788 5786 5785 5783 5781 5779 5777 5774 5772 5771 5769 5767 5765 5763 5761 5760 5758 5757 5755 5754 5754 5752 5750 5749 5749 5748
5837 5832 5829 5825 5823 5820 5817 5814 5810 5807 5804 5801 5799 5796 5794 5792 5790 5788 5786 5785 5783 5782 5780 5778 5776 5774 5772 5770 5769 5767 5766 5764 5763 5761 5760 5758 5757 5756 5755 5753 5751 5751 5750
5836 5832 5828 5825 5821 5819 5816 5813 5810 5806 5803 5801 5799 5796 5794 5792 5791 5789 5787 5785 5784 5782 5781 5779 5777 5775 5774 5772 5771 5769 5768 5766 5765 5763 5762 5761 5760 5759 5757 5755 5754 5753 5751
5834 5831 5828 5824 5821 5818 5815 5812 5809 5806 5803 5800 5798 5796 5794 5792 5791 5789 5787 5785 5784 5782 5781 5780 5778 5777 5775 5773 5772 5771 5770 5768 5768 5766 5765 5763 5762 5761 5759 5758 5757 5755 5754
5831 5828 5826 5823 5820 5817 5813 5811 5808 5805 5803 5800 5798 5796 5794 5792 5790 5789 5787 5785 5783 5782 5781 5780 5779 5777 5775 5774 5773 5772 5771 5771 5770 5768 5767 5767 5765 5764 5762 5761 5760 5758 5757
5829 5827 5825 5822 5819 5815 5811 5809 5806 5804 5801 5799 5797 5796 5794 5792 5790 5788 5786 5785 5783 5782 5781 5780 5778 5776 5774 5774 5773 5772 5771 5772 5771 5771 5770 5770 5769 5767 5766 5764 5763 5761 5759
5835 5829 5825 5821 5818 5814 5810 5807 5804 5801 5799 5797 5795 5794 5792 5790 5788 5786 5785 5784 5783 5782 5780 5779 5778 5776 5774 5773 5773 5772 5771 5772 5772 5772 5773 5773 5772 5771 5770 5769 5767 5765 5762
5834 5830 5827 5821 5816 5812 5809 5806 5802 5799 5797 5795 5793 5792 5789 5787 5786 5785 5784 5783 5782 5781 5781 5779 5777 5776 5774 5772 5771 5771 5770 5770 5772 5773 5774 5774 5774 5773 5773 5772 5770 5768 5765
5833 5830 5827 5822 5815 5810 5806 5803 5800 5797 5795 5794 5792 5790 5788 5785 5784 5784 5784 5783 5782 5781 5780 5778 5776 5774 5772 5771 5770 5770 5770 5770 5771 5772 5774 5775 5775 5775 5775 5773 5771 5769 5766
5831 5827 5825 5819 5815 5809 5804 5800 5799 5797 5794 5791 5789 5787 5786 5784 5783 5781 5781 5781 5781 5780 5779 5777 5775 5773 5771 5770 5768 5769 5769 5770 5770 5771 5772 5774 5775 5776 5775 5773 5771 5769 5766
5825 5822 5817 5813 5809 5805 5801 5797 5795 5794 5792 5790 5789 5787 5785 5783 5782 5780 5779 5778 5779 5778 5776 5775 5773 5771 5769 5767 5765 5766 5766 5767 5768 5769 5770 5771 5772 5774 5774 5772 5771 5768 5766
5817 5812 5807 5805 5799 5796 5794 5791 5789 5787 5786 5785 5784 5783 5782 5781 5780 5778 5775 5774 5774 5772 5771 5769 5768 5765 5763 5761 5759 5760 5760 5761 5762 5764 5765 5766 5768 5770 5771 5770 5769 5767 5765
5806 5802 5795 5793 5789 5786 5783 5781 5779 5778 5777 5778 5777 5776 5775 5776 5775 5773 5771 5770 5767 5764 5764 5763 5762 5759 5756 5754 5753 5753 5753 5754 5755 5757 5759 5760 5762 5764 5767 5767 5767 5766 5764
5795 5789 5785 5781 5776 5775 5773 5770 5769 5769 5769 5770 5770 5769 5768 5768 5768 5767 5765 5763 5759 5756 5755 5755 5752 5751 5749 5747 5747 5747 5748 5748 5749 5750 5752 5753 5755 5757 5760 5762 5763 5763 5762
5786 5779 5774 5769 5767 5765 5761 5759 5758 5757 5760 5761 5763 5764 5763 5762 5761 5759 5758 5757 5753 5749 5748 5746 5744 5742 5742 5741 5735 5734 5740 5742 5744 5746 5746 5746 5747 5750 5753 5756 5758 5759 5759
5778 5772 5767 5763 5760 5757 5754 5752 5750 5750 5751 5752 5754 5756 5757 5756 5755 5754 5752 5750 5748 5744 5742 5740 5739 5736 5736 5734 5727 5722 5721 5728 5736 5741 5740 5739 5740 5743 5746 5750 5751 5752 5754
5772 5767 5763 5759 5755 5751 5748 5744 5741 5740 5740 5740 5742 5744 5747 5748 5748 5747 5746 5745 5743 5741 5739 5738 5736 5731 5729 5729 5725 5718 5711 5713 5721 5729 5732 5731 5731 5733 5737 5741 5744 5746 5747
5767 5763 5757 5752 5748 5745 5742 5736 5731 5727 5725 5728 5731 5734 5737 5739 5739 5739 5739 5738 5736 5735 5734 5734 5733 5730 5726 5723 5721 5719 5716 5714 5709 5712 5719 5722 5723 5725 5728 5731 5734 5737 5740
5763 5757 5751 5745 5740 5737 5734 5730 5725 5721 5720 5722 5723 5725 5727 5729 5730 5731 5731 5730 5729 5728 5728 5727 5726 5725 5723 5719 5715 5712 5710 5708 5706 5702 5702 5708 5712 5716 5719 5723 5725 5728 5732
5754 5749 5743 5736 5731 5728 5724 5721 5718 5714 5713 5713 5713 5715 5717 5720 5722 5723 5723 5722 5722 5721 5720 5719 5719 5717 5716 5713 5711 5707 5704 5701 5699 5697 5695 5696 5699 5705 5710 5714 5716 5719 5722